Regional Weather Roundup
Issued by NWS

Home | Current Version | Previous Version | Graphics & Text | Print | Product List | Glossary On
Versions: 1 2 3 4 5 6 7 8 9 10 11 12 13 14 15 16 17 18 19 20 21 22 23 24 25 26 27 28 29 30 31 32 33 34 35 36 37 38 39 40 41 42 43 44 45 46 47 48 49 50
178
ASUS45 KCYS 301110
RWRWY

WYOMING REGIONAL WEATHER ROUNDUP
NATIONAL WEATHER SERVICE CHEYENNE WY
500 AM MDT TUE AUG 30 2016

NOTE:  "FAIR" INDICATES FEW OR NO CLOUDS BELOW 12,000 FEET
WITH NO SIGNIFICANT WEATHER AND/OR OBSTRUCTIONS TO VISIBILITY.

WYZ001-301200-
YELLOWSTONE NATIONAL PARK

CITY           SKY/WX    TMP DP  RH WIND       PRES   REMARKS
LK YELLOWSTONE   N/A     38  33  82 NW3       30.47R
W YELLOWSTONE  NOT AVBL

$$
WYZ002>013-054>058-071-098>099-301200-
NORTHERN WYOMING

CITY           SKY/WX    TMP DP  RH WIND       PRES   REMARKS
JACKSON        FAIR      43  34  70 N6        30.37S
CODY           FAIR      64  37  36 S7        30.23F
GREYBULL       FAIR      69  40  34 E7        30.19S
WORLAND        FAIR      66  41  40 SE10      30.21S
SHERIDAN       FAIR      53  44  71 SW3       30.17F
BUFFALO        FAIR      61  43  51 SE9       30.26F
GILLETTE       FAIR      63  57  81 S12       30.25F
HULETT         FAIR      59  50  72 CALM      30.27F
NEWCASTLE      FAIR      55  54  94 CALM      30.29S

$$
WYZ014>020-022>026-101>103-301200-
CENTRAL WYOMING

CITY           SKY/WX    TMP DP  RH WIND       PRES   REMARKS
BIG PINEY      FAIR      43  29  57 N10       30.43S
PINEDALE       FAIR      39  32  75 W5        30.44S
DUBOIS         FAIR      46  30  53 NW13      30.43S
LANDER         FAIR      60  35  39 W9        30.33R
RIVERTON       FAIR      60  37  42 E7        30.31S
CASPER         FAIR      50  45  83 SW3       30.33S
DOUGLAS        FAIR      52  48  86 CALM      30.32S

$$
WYZ021-027>030-104>119-301200-
SOUTHERN WYOMING

CITY           SKY/WX    TMP DP  RH WIND       PRES   REMARKS
EVANSTON       FAIR      54  24  31 E5        30.37S
FORT BRIDGER   FAIR      53  22  30 NW5       30.40S
ROCK SPRINGS   FAIR      57  33  40 SE7       30.37S
DIXON          FAIR      44  36  74 CALM      30.41S
RAWLINS        FAIR      47  35  63 N3        30.41S
SARATOGA       FAIR      43  36  75 S3        30.43R
LARAMIE        FAIR      41  38  89 S7        30.44S
CHEYENNE       FAIR      54  42  64 NW3       30.37S
TORRINGTON     FAIR      54  53  97 NE3       30.27S
PINE BLUFFS    FAIR      50  45  81 CALM      30.33S

$$




USA.gov is the U.S. government's official web portal to all federal, state and local government web resources and services.